Torna al catalogo

STARLINK-33549

AttivoComunicazioniVLEO
NORAD 62289·PAYLOAD·🇺🇸 United States

Lanciato Dec 8, 2024 da Cape Canaveral Space Force Station

Loading…

Prossimi Passaggi (prossime 24 ore)

TLE

AggiornatoSource: CelesTrak SupGP

Epoca: Sep 14, 2026, 20:56 UTC

1 62289C 24237Y   26257.87270833  .00041673  00000+0  15098-2 0  2577
2 62289  42.9995 228.1369 0001331 259.9948  72.3725 15.27548451    11

Traccia STARLINK-33549 in tempo reale con AllMySat

Download on the App Store